Regional Weather Roundup
Issued by NWS Sioux Falls, SD

Home | Current Version | Previous Version | Graphics & Text | Print | Product List | Glossary On
Versions: 1 2 3 4 5 6 7 8 9 10 11 12 13 14 15 16 17 18 19 20 21 22 23 24 25 26 27 28 29 30 31 32 33 34 35 36 37 38 39 40 41 42 43 44 45 46 47 48 49 50
000
ASUS43 KFSD 171210
RWRFSD

WEATHER ROUNDUP FOR SE SOUTH DAKOTA/SW MINNESOTA/NW IOWA
NATIONAL WEATHER SERVICE SIOUX FALLS SD
700 AM CDT WED SEP 17 2014

NOTE: "FAIR" INDICATES FEW OR NO CLOUDS BELOW 12,000 FEET WITH NO
SIGNIFICANT WEATHER AND OR OBSTRUCTIONS TO VISIBILITY.


SDZ038>040-050-052>070-171300-
SOUTHEAST SOUTH DAKOTA

CITY           SKY/WX    TMP DP  RH WIND       PRES   REMARKS
CHAMBERLAIN    FOG       44  44 100 SW5       29.90R VSB 1/4
6HR MIN TEMP:  44; 6HR MAX TEMP:  54;

HURON          CLEAR     47  45  93 CALM      29.91R
6HR MIN TEMP:  47; 6HR MAX TEMP:  56;

MADISON        FAIR      46  46 100 S3        29.92S FOG
MITCHELL       CLEAR     46  46 100 E5        29.91R
6HR MIN TEMP:  46; 6HR MAX TEMP:  55;

SIOUX FALLS    PTCLDY    49  48  97 CALM      29.92R
6HR MIN TEMP:  49; 6HR MAX TEMP:  60;

WINNER         FAIR      53  50  89 SW6       29.91R
YANKTON        CLEAR     48  46  93 CALM      29.91F
$$

MNZ071-072-080-081-089-090-097-098-171300-
SOUTHWEST MINNESOTA

CITY           SKY/WX    TMP DP  RH WIND       PRES   REMARKS
FAIRMONT       CLOUDY    52  45  76 S5        29.95S
JACKSON        CLEAR     50  46  87 S5        29.95S
LUVERNE        CLEAR     50  46  87 CALM      29.93S
MARSHALL       CLEAR     52  46  82 CALM      29.90S
6HR MIN TEMP:  52; 6HR MAX TEMP:  61;

MONTEVIDEO     CLEAR     48  46  93 CALM      29.93R
PIPESTONE      CLEAR     48  46  93 CALM      29.92S
REDWOOD FALLS  CLEAR     51  50  96 SE3       29.92S
TRACY          CLEAR     54  50  87 SW10      29.92S
WINDOM         CLEAR     52  48  87 CALM      29.94S
WORTHINGTON    CLEAR     48  46  93 SW6       29.94S
$$

IAZ001>003-012>014-020>022-031-032-NEZ013-014-SDZ071-171300-
NORTHWEST IOWA

CITY           SKY/WX    TMP DP  RH WIND       PRES   REMARKS
CHEROKEE       CLEAR     48  48 100 CALM      29.94S
DENISON        PTCLDY    52  52 100 CALM      29.93S
ESTHERVILLE    CLEAR     47  46  97 S5        29.95S
LE MARS          N/A     48  48 100 CALM      29.93S
ORANGE CITY    CLEAR     52  48  87 SE3       29.93R
SHELDON        CLEAR     46  46 100 E5        29.92S
SIOUX CITY     CLEAR     53  51  93 SE5       29.93S
6HR MIN TEMP:  53; 6HR MAX TEMP:  58;

SPENCER        CLEAR     48  46  93 SE5       29.95S
6HR MIN TEMP:  48; 6HR MAX TEMP:  55;

STORM LAKE     CLEAR     50  50 100 S8        29.95R
$$

ABBREVIATIONS USED IN REMARKS
   TC - TEMPERATURE IN CELSIUS
  WCI - WIND CHILL INDEX
   HX - HEAT INDEX
  VSB - VISIBILITY



USA.gov is the U.S. government's official web portal to all federal, state and local government web resources and services.